Observation Time (UTC), Cloud Area (km^2), Min Cloud BT (K)
2022-01-15T04:17:16Z,1559.4,187.50
2022-01-15T04:27:16Z,11657.6,173.27
2022-01-15T04:37:17Z,36415.2,184.29
2022-01-15T04:47:17Z,82347.8,194.65
2022-01-15T04:57:17Z,111101.6,188.74
2022-01-15T05:07:13Z,117488.9,196.52
2022-01-15T05:17:12Z,135033.0,189.08
2022-01-15T05:27:12Z,158614.8,210.13
2022-01-15T05:37:12Z,170946.6,202.39
2022-01-15T05:47:11Z,180317.3,200.27
2022-01-15T05:57:10Z,184728.5,201.28
2022-01-15T06:07:10Z,195375.3,199.24
2022-01-15T06:17:11Z,208925.7,193.45
2022-01-15T06:27:11Z,222634.3,193.60
2022-01-15T06:37:11Z,237717.4,193.45
2022-01-15T06:47:11Z,246607.8,192.21
2022-01-15T06:57:11Z,258507.4,190.26
2022-01-15T07:07:09Z,274074.3,191.09
2022-01-15T07:17:09Z,293592.8,190.26
2022-01-15T07:27:09Z,312466.1,190.43
2022-01-15T07:37:10Z,328224.9,190.10
2022-01-15T07:47:10Z,344048.4,191.25
2022-01-15T07:57:10Z,357518.6,191.09
2022-01-15T08:07:10Z,368872.6,191.57
2022-01-15T08:17:10Z,377199.4,191.89
2022-01-15T08:27:09Z,383252.3,192.05
2022-01-15T08:37:09Z,388633.0,176.98
2022-01-15T08:47:09Z,391903.3,178.68
2022-01-15T08:57:09Z,394683.8,192.52
2022-01-15T09:07:10Z,398537.3,192.05
2022-01-15T09:17:10Z,402307.8,192.83
2022-01-15T09:27:09Z,401794.0,191.73
2022-01-15T09:37:09Z,403432.8,190.76
2022-01-15T09:47:08Z,405424.0,191.09
2022-01-15T09:57:08Z,406446.7,191.25
2022-01-15T10:07:08Z,408293.9,191.73
2022-01-15T10:17:08Z,411295.6,191.73
2022-01-15T10:27:09Z,414366.8,191.89
2022-01-15T10:37:09Z,417104.9,190.60
2022-01-15T10:47:09Z,420462.5,191.41
2022-01-15T10:57:09Z,424229.7,191.25
2022-01-15T11:07:10Z,428666.6,191.57
2022-01-15T11:17:10Z,434516.7,191.41
2022-01-15T11:27:09Z,441828.6,192.05
2022-01-15T11:37:09Z,448938.3,191.57
2022-01-15T11:47:09Z,456603.3,191.89
2022-01-15T11:57:09Z,463497.1,192.21
2022-01-15T12:07:10Z,468307.4,192.05
2022-01-15T12:17:10Z,470937.6,192.52
2022-01-15T12:27:10Z,477653.4,192.68
2022-01-15T12:37:10Z,483930.8,192.52
2022-01-15T12:47:10Z,491478.7,192.99
2022-01-15T12:57:09Z,498740.0,193.30
2022-01-15T13:07:09Z,505376.3,192.99
2022-01-15T13:17:09Z,511828.2,193.14
2022-01-15T13:27:09Z,520847.3,193.30
2022-01-15T13:37:10Z,529001.1,192.99
2022-01-15T13:47:10Z,533510.8,190.93
2022-01-15T13:57:05Z,530873.7,193.14
2022-01-15T14:07:10Z,544000.0,191.57
2022-01-15T14:17:10Z,552143.4,192.83
2022-01-15T14:27:09Z,558297.7,192.68
2022-01-15T14:37:09Z,562402.9,192.99
2022-01-15T14:47:09Z,565015.9,193.30
2022-01-15T14:57:09Z,566615.7,193.91
2022-01-15T15:07:10Z,566057.4,194.06
2022-01-15T15:17:10Z,565959.8,194.35
2022-01-15T15:27:10Z,566394.8,194.06
2022-01-15T15:37:10Z,566929.6,194.50
2022-01-15T15:47:10Z,567568.9,194.50
2022-01-15T15:57:11Z,564580.1,194.65
2022-01-15T16:07:10Z,560149.4,194.94
